Tracking 29747 objects as of 9-Oct-2024
HD Live streaming from Space Station
objects crossing your sky now

STARLINK-2421

Track STARLINK-2421 now!
10-day predictions
STARLINK-2421 is classified as:


NORAD ID: 48098
Int'l Code: 2021-027G
Perigee: 552.8 km
Apogee: 555.2 km
Inclination: 53.1 °
Period: 95.6 minutes
Semi major axis: 6924 km
RCS: Unknown
Launch date: April 7, 2021
Source: United States (US)
Launch site: AIR FORCE EASTERN TEST RANGE (AFETR)
Your satellite tracking list
Your tracking list is empty




NASA's NSSDC Master Catalog

Two Line Element Set (TLE):
1 48098U 21027G   24282.39856517  .00104632  00000-0  69173-2 0  9997
2 48098  53.0545 323.8264 0001727  77.1999 282.9183 15.06520689194582
Source of the keplerian elements: AFSPC